Mercury, NV

8:33 PM PDT on May 20, 2018 (GMT -0700)
Mercury

Weather History for KDRA - October, 2011

Change the Weather History Date:

Saturday, October 8, 2011

  Actual Average Record
Temperature  
Mean Temperature 58 °F 66 °F  
Max Temperature 71 °F 81 °F 98 °F (1996)
Min Temperature 44 °F 52 °F 42 °F (2009)
Degree Days  
Heating Degree Days 8    
Cooling Degree Days 0    
Growing Degree Days 8 (Base 50)    
Moisture  
Dew Point 31 °F    
Average Humidity 38    
Maximum Humidity 71    
Minimum Humidity 19    
Precipitation  
Precipitation 0.00 in 0.01 in 0.31 in (1985)
Month to date precipitation 0.08  
Year to date precipitation 4.65  
Sea Level Pressure  
Sea Level Pressure 30.03 in    
Wind  
Wind Speed 8 mph (NE)    
Max Wind Speed 16 mph    
Max Gust Speed 24 mph    
Visibility 10 miles    
Events      
T = Trace of Precipitation, MM = Missing Value Source: NWS Daily Summary

Daily Weather History Graph

Daily Weather History Graph

Search for Another Location

Airport or City:

Astronomy

Oct. 08, 2011 Rise Set
Actual Time 6:45 AM PDT 6:17 PM PDT
Civil Twilight 6:19 AM PDT 6:43 PM PDT
Nautical Twilight 5:49 AM PDT 7:13 PM PDT
Astronomical Twilight 5:19 AM PDT 7:43 PM PDT
Moon 4:26 PM PDT (10/8) 3:40 AM PDT (10/8)
Length of Visible Light 12h 24m
Length of Day
11h 32m
Waxing Gibbous, 90% of the Moon is Illuminated
Oct 8
Waxing Gibbous
Oct 11
Full
Oct 19
Last Quarter
Oct 26
New
Nov 2
First Quarter

Hourly Weather History & Observations

Time (PDT) Temp. Windchill Dew Point Humidity Pressure Visibility Wind Dir Wind Speed Gust Speed Precip Events Conditions
12:53 AM 52.0 °F - 35.1 °F 53% 30.01 in 10.0 mi NNE 5.8 mph - N/A   Clear
1:53 AM 52.0 °F - 35.1 °F 53% 30.01 in 10.0 mi North 10.4 mph - N/A   Clear
2:53 AM 54.0 °F - 34.0 °F 47% 30.00 in 10.0 mi Calm Calm - N/A   Clear
3:53 AM 52.0 °F - 35.1 °F 53% 30.01 in 10.0 mi NE 15.0 mph - N/A   Clear
4:53 AM 51.1 °F - 35.1 °F 54% 30.02 in 10.0 mi NNE 9.2 mph - N/A   Clear
5:53 AM 46.0 °F 43.9 °F 35.1 °F 66% 30.05 in 10.0 mi NW 4.6 mph - N/A   Clear
6:53 AM 44.1 °F - 35.1 °F 71% 30.07 in 10.0 mi Calm Calm - N/A   Clear
7:53 AM 51.1 °F - 36.0 °F 56% 30.08 in 10.0 mi ESE 4.6 mph - N/A   Clear
8:53 AM 57.0 °F - 35.1 °F 44% 30.08 in 10.0 mi NNE 13.8 mph - N/A   Clear
9:53 AM 61.0 °F - 34.0 °F 36% 30.07 in 10.0 mi NE 13.8 mph - N/A   Clear
10:53 AM 63.0 °F - 33.1 °F 33% 30.07 in 10.0 mi North 11.5 mph - N/A   Clear
11:53 AM 66.0 °F - 30.0 °F 26% 30.05 in 10.0 mi NE 11.5 mph 18.4 mph N/A   Clear
12:53 PM 66.9 °F - 28.9 °F 24% 30.03 in 10.0 mi NE 16.1 mph 24.2 mph N/A   Clear
1:53 PM 69.1 °F - 28.9 °F 22% 29.99 in 10.0 mi NE 13.8 mph 19.6 mph N/A   Clear
2:53 PM 70.0 °F - 28.0 °F 21% 29.98 in 10.0 mi NE 12.7 mph 23.0 mph N/A   Clear
3:53 PM 71.1 °F - 27.0 °F 19% 29.97 in 10.0 mi NNE 12.7 mph 19.6 mph N/A   Clear
4:53 PM 70.0 °F - 26.1 °F 19% 29.96 in 10.0 mi NNE 12.7 mph 19.6 mph N/A   Clear
5:53 PM 68.0 °F - 26.1 °F 21% 29.98 in 10.0 mi NNE 13.8 mph - N/A   Clear
6:53 PM 64.0 °F - 28.0 °F 26% 30.01 in 10.0 mi NE 6.9 mph - N/A   Clear
7:53 PM 61.0 °F - 28.9 °F 30% 30.02 in 10.0 mi NE 6.9 mph - N/A   Clear
8:53 PM 60.1 °F - 30.0 °F 32% 30.04 in 10.0 mi NE 8.1 mph - N/A   Clear
9:53 PM 57.0 °F - 30.0 °F 36% 30.04 in 10.0 mi NE 5.8 mph - N/A   Clear
10:53 PM 57.0 °F - 30.0 °F 36% 30.04 in 10.0 mi Variable 4.6 mph - N/A   Clear
11:53 PM 57.0 °F - 30.0 °F 36% 30.04 in 10.0 mi NE 6.9 mph - N/A   Clear